Leadville, CO

3:19 PM MDT on May 24, 2017 (GMT -0600)
Lake County

Weather History for KLXV - September, 2012

Change the Weather History Date:

Tuesday, September 25, 2012

  Actual Average Record
Temperature  
Mean Temperature 41 °F -  
Max Temperature 52 °F 58 °F 73 °F (2014)
Min Temperature 30 °F 28 °F 14 °F (2000)
Degree Days  
Heating Degree Days 24 22  
Month to date heating degree days 424 461  
Since 1 July heating degree days 994 1183  
Cooling Degree Days 0 0  
Month to date cooling degree days 0 0  
Year to date cooling degree days 0 0  
Moisture  
Dew Point 33 °F    
Average Humidity 73    
Maximum Humidity 100    
Minimum Humidity 46    
Precipitation  
Precipitation T in 0.03 in 0.15 in (1985)
Month to date precipitation 0.90 0.94  
Year to date precipitation 9.35 9.89  
Sea Level Pressure  
Sea Level Pressure 29.93 in    
Wind  
Wind Speed 4 mph (NNE)    
Max Wind Speed 17 mph    
Max Gust Speed 23 mph    
Visibility 10 miles    
Events Rain    
T = Trace of Precipitation, MM = Missing Value Source: NWS Daily Summary

Daily Weather History Graph

Daily Weather History Graph

Search for Another Location

Airport or City:

Trip Planner

Search our weather history database for the weather conditions in past years. The results will help you decide how hot, cold, wet, or windy it might be!

Date:

Astronomy

Sep. 25, 2012 Rise Set
Actual Time 6:56 AM MDT 6:56 PM MDT
Civil Twilight 6:29 AM MDT 7:23 PM MDT
Nautical Twilight 5:58 AM MDT 7:54 PM MDT
Astronomical Twilight 5:26 AM MDT 8:25 PM MDT
Moon 4:21 PM MDT (9/25) 2:22 AM MDT (9/25)
Length of Visible Light 12h 53m
Length of Day
12h 00m
Waxing Gibbous, 80% of the Moon is Illuminated
Sep 25
Waxing Gibbous
Sep 29
Full
Oct 8
Last Quarter
Oct 15
New
Oct 21
First Quarter

Hourly Weather History & Observations

Time (MDT) Temp. Windchill Dew Point Humidity Pressure Visibility Wind Dir Wind Speed Gust Speed Precip Events Conditions
12:53 AM 36.0 °F - 33.1 °F 89% 29.97 in 10.0 mi Calm Calm - N/A   Clear
1:53 AM 33.1 °F 30.0 °F 30.9 °F 92% 29.97 in 10.0 mi NNE 3.5 mph - N/A   Clear
2:53 AM 36.0 °F 33.3 °F 32.0 °F 86% 29.89 in 10.0 mi East 3.5 mph - N/A   Mostly Cloudy
3:53 AM 33.1 °F - 30.9 °F 92% 29.91 in 10.0 mi Calm Calm - N/A   Scattered Clouds
4:53 AM 32.0 °F 27.5 °F 30.0 °F 92% 29.91 in 10.0 mi NE 4.6 mph - N/A   Scattered Clouds
5:53 AM 30.9 °F 27.5 °F 30.0 °F 96% 29.92 in 10.0 mi ENE 3.5 mph - N/A   Scattered Clouds
6:53 AM 32.0 °F 28.7 °F 30.9 °F 96% 29.93 in 10.0 mi NE 3.5 mph - N/A   Overcast
7:53 AM 36.0 °F 31.1 °F 33.1 °F 89% 29.91 in 10.0 mi NNE 5.8 mph - N/A   Partly Cloudy
8:53 AM 39.9 °F - 34.0 °F 79% 29.91 in 10.0 mi Calm Calm - N/A   Clear
9:53 AM 43.0 °F - 32.0 °F 65% 29.91 in 10.0 mi Calm Calm - N/A   Partly Cloudy
10:53 AM 46.9 °F - 32.0 °F 56% 29.88 in 9.0 mi SSW 3.5 mph - N/A   Overcast
11:53 AM 46.0 °F 41.9 °F 34.0 °F 63% 29.88 in 10.0 mi West 8.1 mph - N/A   Overcast
12:53 PM 45.0 °F 39.7 °F 33.1 °F 63% 29.90 in 10.0 mi West 10.4 mph - N/A   Overcast
1:53 PM 48.0 °F - 32.0 °F 54% 29.86 in 10.0 mi Calm Calm - N/A   Partly Cloudy
2:53 PM 48.9 °F - 30.0 °F 48% 29.82 in 10.0 mi SW 4.6 mph - N/A   Clear
3:53 PM 51.1 °F - 34.0 °F 52% 29.82 in 10.0 mi West 5.8 mph - N/A   Overcast
4:53 PM 50.0 °F - 30.0 °F 46% 29.84 in 10.0 mi Calm Calm - N/A   Mostly Cloudy
5:53 PM 43.0 °F 37.7 °F 35.1 °F 74% 29.93 in 10.0 mi SSE 9.2 mph 20.7 mph 0.00 in   Overcast
6:03 PM 42.8 °F 38.0 °F 35.6 °F 76% 30.21 in 10.0 mi SSE 8.1 mph 18.4 mph 0.00 in Rain Light Rain
6:53 PM 39.9 °F 35.8 °F 37.0 °F 89% 29.97 in 10.0 mi North 5.8 mph - 0.00 in Rain Light Rain
7:39 PM 37.4 °F 30.3 °F 35.6 °F 93% 30.23 in 10.0 mi NNE 10.4 mph - 0.00 in   Overcast
7:53 PM 37.0 °F 30.4 °F 34.0 °F 89% 29.96 in 10.0 mi NNE 9.2 mph - 0.00 in   Overcast
8:53 PM 37.9 °F 34.4 °F 35.1 °F 89% 29.94 in 10.0 mi North 4.6 mph - N/A   Overcast
9:53 PM 37.0 °F 32.4 °F 34.0 °F 89% 29.94 in 10.0 mi NNE 5.8 mph - N/A   Overcast
10:53 PM 37.9 °F - 35.1 °F 89% 29.90 in 10.0 mi Calm Calm - N/A   Overcast
11:53 PM 37.0 °F - 35.1 °F 93% 29.91 in 10.0 mi Calm Calm - N/A   Overcast